Location: Karcze
(52.0945°N, 22.4786°E)
Time: 12:46:15
(UTC+00:00)

Cosmos 1833 Rocket - Pass Details

Date: 14 July 2020
Orbit: 832 x 840 km, 71.0° (Epoch: 07 August)

Event Time Altitude Azimuth Distance (km) Brightness Sun altitude
Exits shadow 00:45:03 14° 198° (SSW) 2,167 4.2 -11.1°
Maximum altitude 00:49:53 71° 116° (ESE) 882 2.8 -10.7°
Drops below altitude 10° 00:55:29 10° 34° (NE) 2,457 6.8 -10.2°
Sets 00:57:57 0° 32° (NNE) 3,396 8.2 -10.0°
